Wetbulb
72.72 73.47 73.69 74.04 74.26 74.45 74.07 75.00 75.65 75.91 75.82 75.63 76.14 75.90 76.04 76.26 76.66 76.83 76.66 76.45 76.15 76.08 76.26 76.56 76.09 76.78 74.92 75.08 75.41 75.73 75.00 73.88 70.88 73.20 75.49 76.98 76.95 76.12 76.22 77.04 76.53 74.20 67.38
72.79 73.23 73.24 74.02 74.37 73.82 73.98 74.46 75.25 75.67 75.98 75.83 75.78 75.79 76.15 75.74 76.34 75.97 75.59 75.41 75.56 75.13 75.26 75.60 75.70 75.13 76.09 76.31 75.22 75.85 75.15 75.56 73.02 72.35 74.63 75.35 75.57 74.95 75.92 75.53 73.30 72.31 71.27
73.13 73.08 73.27 73.30 73.26 73.51 74.23 74.84 75.30 75.52 75.04 75.24 75.01 74.94 75.03 75.16 75.70 76.16 76.21 76.17 75.65 75.57 75.65 75.15 75.54 75.61 75.39 75.09 76.13 75.92 74.58 74.64 74.51 74.91 72.40 74.96 75.35 74.64 75.06 75.34 71.09 70.69 71.55
73.11 72.92 73.10 73.42 73.59 73.74 74.63 74.69 75.39 75.91 75.00 74.74 75.21 75.00 74.54 74.59 75.18 75.75 76.00 76.12 75.97 75.70 76.18 76.09 75.89 75.68 75.92 76.32 76.36 76.91 75.99 75.36 75.73 74.33 72.23 73.37 74.92 73.93 74.92 73.99 70.53 67.17 67.85
72.95 72.98 73.61 74.50 74.46 74.74 75.13 75.17 75.20 75.12 74.93 75.51 75.25 74.87 74.87 74.40 74.09 75.35 76.20 75.76 75.97 75.80 76.11 76.04 75.64 73.64 67.81 70.70 76.61 76.71 76.11 75.77 74.70 72.34 73.86 73.46 72.22 71.87 72.25 73.09 73.16 70.98 64.60
72.32 72.71 73.95 74.48 74.72 74.53 74.80 75.01 75.22 75.12 75.15 75.15 74.75 74.80 74.71 73.37 65.43 66.01 71.67 74.78 75.81 75.70 75.13 74.13 72.79 68.79 68.74 65.77 65.76 64.89 68.80 74.92 74.13 74.16 72.23 70.92 71.14 71.98 72.61 71.14 70.83 70.61 67.01
71.22 72.87 73.76 73.78 72.31 74.26 74.67 74.63 74.41 74.56 74.93 74.61 74.61 74.85 74.68 74.58 61.60 62.63 64.88 72.81 73.48 74.19 74.26 70.50 70.32 69.89 68.91 68.93 63.34 62.99 63.12 62.48 65.84 70.43 68.42 68.67 69.70 69.18 70.11 68.44 68.38 65.16 61.43
70.07 71.79 72.38 72.56 72.65 73.69 73.50 73.96 74.23 73.81 72.66 72.77 72.34 72.42 71.44 70.74 60.88 60.83 62.21 72.35 72.00 72.24 71.50 69.59 68.71 66.74 67.50 65.86 67.74 66.72 64.44 64.24 65.12 65.60 65.54 64.11 65.00 65.93 67.59 67.99 67.72 62.72 60.58
69.71 70.34 70.55 70.41 68.71 68.35 68.82 69.75 69.86 69.93 68.66 69.06 69.05 68.45 68.58 67.69 60.49 59.91 62.12 69.90 67.27 64.71 64.25 65.36 67.74 65.10 58.08 60.24 65.56 63.57 61.38 58.70 55.50 55.57 55.82 55.97 55.30 56.11 59.73 65.87 64.89 64.07 62.75
67.54 69.61 69.65 70.14 67.72 69.13 66.04 64.77 62.42 62.16 62.60 61.81 61.21 60.04 57.69 64.07 59.29 57.86 61.41 67.26 62.95 57.83 58.99 57.87 57.36 58.50 55.58 58.36 64.36 63.40 60.78 59.08 59.36 59.55 59.51 57.91 57.51 56.40 55.19 59.23 59.03 58.12 58.62
69.15 68.46 69.91 68.53 67.54 65.01 62.94 60.09 58.66 57.76 57.72 58.17 56.11 55.22 57.13 56.97 59.35 56.67 56.05 60.45 58.85 56.47 58.09 57.03 55.05 53.26 52.51 54.69 58.34 63.51 60.59 59.32 56.88 57.02 56.46 56.31 55.74 55.24 54.46 54.39 54.15 54.73 52.84
69.26 69.14 68.06 65.45 63.78 62.22 59.97 58.26 58.10 58.48 56.43 54.11 52.85 52.54 54.68 56.63 55.02 55.14 56.57 56.25 57.43 57.54 56.21 54.29 51.64 49.86 49.58 50.92 53.20 52.39 52.39 53.83 52.52 51.26 52.36 51.19 50.40 49.96 51.47 51.27 52.67 51.29 51.22
60.36 59.69 62.79 64.74 62.91 61.25 58.96 57.70 56.17 55.17 55.29 56.94 56.13 55.59 56.87 55.57 55.78 52.69 53.03 54.21 55.57 57.41 56.24 52.26 50.14 48.78 49.45 50.37 50.95 51.64 52.73 55.73 55.78 54.58 52.23 49.77 49.61 50.25 51.95 51.27 51.29 51.28 50.78
58.78 57.58 56.91 56.01 55.15 54.20 57.15 58.80 56.63 54.28 51.99 53.34 53.55 53.01 53.34 55.77 56.47 56.67 55.89 55.16 54.60 54.17 52.52 51.89 51.42 50.54 50.18 50.29 50.88 51.00 51.12 52.05 51.18 50.40 49.74 49.89 50.21 50.14 49.26 50.36 50.45 51.29 49.06
53.29 53.50 52.96 53.52 51.49 48.67 45.60 49.11 50.68 48.69 52.56 54.34 51.60 50.12 50.65 52.47 50.48 46.26 51.36 53.67 53.30 50.51 49.78 50.03 48.99 48.46 47.11 47.37 48.24 48.91 49.68 51.93 50.31 50.08 49.49 48.42 48.43 48.57 48.09 49.30 48.92 48.69 47.45
52.63 51.09 50.59 50.68 50.79 50.08 48.71 46.63 44.26 44.64 44.41 42.59 42.14 45.14 44.16 43.56 41.51 41.04 42.14 43.76 44.60 45.78 49.83 48.03 47.18 47.69 47.64 47.60 47.44 47.87 47.87 48.87 48.95 48.59 48.64 48.59 47.63 47.50 47.14 47.55 48.10 47.12 46.19
53.20 51.67 51.67 51.30 51.33 50.80 50.51 49.42 46.76 44.75 42.55 40.72 40.85 42.21 41.30 40.48 40.48 39.61 40.43 42.28 43.03 47.26 50.92 48.99 47.74 46.67 46.86 47.15 47.47 47.62 46.94 47.98 48.96 47.78 47.66 47.32 47.09 46.17 46.79 46.44 46.42 47.00 46.32
56.91 51.50 53.47 52.12 52.43 51.89 52.41 50.81 52.04 51.37 51.17 47.85 43.30 41.63 39.83 39.25 39.74 40.43 41.20 44.42 49.27 49.08 49.38 46.83 45.90 45.83 46.06 46.32 45.78 45.70 45.97 46.48 46.57 46.42 46.80 46.38 45.24 46.53 46.46 45.98 46.34 46.46 46.75
58.12 56.32 55.28 54.04 52.95 51.18 50.95 52.22 51.66 49.79 45.46 44.32 43.41 42.46 42.11 39.88 39.93 40.66 43.07 52.68 51.59 50.85 51.37 50.56 49.39 48.67 47.58 47.55 46.48 45.47 45.61 46.44 46.28 45.82 45.40 45.56 45.65 45.81 45.27 45.93 44.04 41.53 43.06
55.34 55.12 56.35 55.75 52.22 51.19 50.45 51.36 50.80 50.28 49.26 48.39 47.88 47.79 47.63 48.09 49.70 50.24 52.27 53.09 53.36 51.41 52.07 51.21 50.82 50.60 49.69 48.85 47.12 45.93 45.82 44.91 45.02 44.69 43.86 44.45 44.51 44.61 43.34 43.48 44.30 44.76 44.72
54.31 53.98 53.58 56.74 54.47 51.51 50.06 50.25 49.96 48.80 47.60 47.68 48.66 48.32 43.39 50.52 50.82 51.63 52.19 52.97 53.01 52.66 52.44 51.89 50.74 50.27 49.81 49.14 48.30 47.29 45.62 45.38 45.14 44.57 43.80 43.65 43.76 43.33 44.16 44.82 44.06 44.62 43.82
54.33 53.89 53.94 55.46 54.87 53.21 51.59 50.62 51.13 49.87 48.21 47.65 47.25 47.02 40.63 49.10 51.91 52.01 52.55 53.30 53.78 53.64 53.24 52.33 51.28 50.99 50.32 49.42 48.71 47.20 45.50 44.83 44.73 44.80 44.48 43.78 43.69 43.67 44.08 44.47 45.57 46.29 46.46
54.21 52.86 52.20 52.53 53.35 51.38 52.35 52.77 51.71 51.29 50.81 49.15 48.49 47.81 47.96 49.84 51.96 52.24 52.77 53.52 53.37 52.76 52.59 52.26 51.71 50.58 50.90 50.62 50.38 49.18 46.42 46.15 46.72 46.28 45.46 44.79 44.34 44.48 44.78 44.78 45.49 45.76 45.74
54.39 53.26 52.33 51.97 51.74 52.09 52.33 52.45 52.45 47.63 51.98 52.00 51.27 50.32 50.37 50.34 51.36 52.76 53.05 53.28 53.45 53.22 53.04 52.85 52.34 51.42 51.04 50.74 50.25 49.99 49.46 48.94 48.98 48.21 48.19 47.34 46.36 43.00 45.76 44.93 44.90 44.19 44.70
54.94 53.54 52.82 52.58 51.51 51.27 51.43 51.45 51.72 52.14 52.26 52.67 52.79 52.91 53.16 52.87 52.36 52.78 53.33 53.71 53.48 53.30 52.97 53.05 52.79 52.34 51.35 51.08 50.50 50.48 45.44 39.32 47.89 44.34 48.77 48.37 47.70 47.12 46.56 45.92 45.05 45.18 43.99
56.84 54.75 52.85 52.64 52.49 51.95 51.66 51.57 51.44 51.60 52.03 52.27 52.59 53.13 53.38 53.29 53.50 53.73 53.47 53.33 53.45 53.62 53.62 53.30 53.06 52.80 52.29 51.81 51.29 45.77 34.33 35.12 42.97 36.93 49.13 49.13 47.97 47.45 46.99 46.34 45.44 45.18 44.75
MSLP
1016.85 1017.38 1017.79 1018.10 1018.42 1018.72 1018.91 1019.01 1019.03 1019.12 1019.22 1019.38 1019.49 1019.74 1019.92 1020.07 1020.10 1020.34 1020.61 1020.67 1020.80 1020.86 1020.96 1021.03 1020.98 1021.08 1020.89 1020.94 1021.05 1020.97 1020.82 1020.70 1020.19 1019.80 1020.31 1020.32 1020.53 1020.69 1020.52 1020.38 1020.21 1020.21 1021.21
1016.37 1016.96 1017.33 1017.71 1018.06 1018.30 1018.54 1018.73 1018.98 1019.03 1018.90 1019.11 1019.36 1019.63 1019.70 1019.74 1019.94 1020.01 1020.23 1020.22 1020.43 1020.51 1020.56 1020.70 1020.66 1020.62 1020.81 1020.86 1020.79 1020.85 1020.71 1020.75 1020.51 1020.15 1020.15 1020.20 1020.54 1020.57 1020.65 1020.57 1020.20 1020.29 1020.79
1015.93 1016.39 1016.77 1017.20 1017.57 1017.80 1018.11 1018.39 1018.59 1018.78 1018.94 1018.99 1019.15 1019.34 1019.48 1019.61 1019.73 1019.85 1019.90 1020.06 1020.03 1020.13 1020.26 1020.35 1020.37 1020.56 1020.58 1020.38 1020.67 1020.63 1020.49 1020.59 1020.54 1020.57 1020.25 1020.57 1020.60 1020.71 1020.74 1020.80 1021.02 1020.89 1020.74
1015.40 1015.80 1016.19 1016.58 1016.92 1017.26 1017.69 1018.05 1018.36 1018.54 1018.71 1018.77 1018.94 1019.11 1019.29 1019.34 1019.44 1019.59 1019.68 1019.81 1019.82 1019.92 1020.05 1020.18 1020.24 1020.21 1020.34 1020.40 1020.51 1020.61 1020.68 1020.69 1020.66 1020.73 1020.52 1020.51 1020.70 1020.99 1020.83 1020.66 1021.10 1021.42 1021.24
1015.07 1015.42 1015.49 1015.90 1016.43 1016.89 1017.34 1017.68 1017.98 1018.26 1018.40 1018.59 1018.76 1018.92 1018.99 1019.08 1019.13 1019.25 1019.31 1019.40 1019.58 1019.72 1019.82 1019.98 1020.14 1020.06 1020.46 1020.51 1020.49 1020.55 1020.73 1020.67 1020.74 1020.44 1020.70 1020.64 1020.78 1020.84 1020.88 1020.88 1020.81 1021.15 1022.07
1014.89 1015.04 1015.14 1015.51 1015.91 1016.29 1016.76 1017.17 1017.54 1017.83 1018.08 1018.28 1018.49 1018.61 1018.72 1018.90 1019.08 1019.27 1019.38 1019.27 1019.28 1019.46 1019.63 1020.10 1020.37 1020.62 1020.53 1020.77 1020.82 1021.04 1021.18 1020.64 1020.70 1020.68 1020.59 1020.65 1020.98 1021.02 1021.04 1021.04 1020.96 1020.82 1021.25
1014.54 1014.78 1015.10 1015.35 1015.54 1015.71 1016.25 1016.80 1017.22 1017.53 1017.79 1018.00 1018.19 1018.41 1018.61 1018.90 1019.29 1019.25 1019.32 1019.36 1019.22 1019.26 1019.64 1020.17 1020.28 1020.52 1020.26 1020.96 1021.18 1021.29 1021.44 1021.36 1021.07 1020.87 1021.07 1021.47 1021.48 1021.54 1021.17 1021.03 1021.20 1021.65 1022.33
1014.33 1014.56 1014.88 1015.14 1015.36 1015.52 1015.93 1016.32 1016.82 1017.29 1017.73 1017.86 1018.16 1018.43 1018.68 1018.99 1019.45 1019.54 1019.42 1019.19 1019.20 1019.33 1019.70 1020.06 1020.40 1020.71 1020.66 1020.80 1020.93 1021.31 1021.64 1021.76 1021.55 1021.28 1021.83 1022.32 1022.35 1022.24 1021.79 1021.55 1021.85 1022.52 1022.87
1014.35 1014.50 1014.68 1015.01 1015.39 1015.75 1016.24 1016.41 1017.12 1017.50 1017.94 1018.21 1018.50 1018.76 1018.84 1019.02 1019.31 1019.56 1019.71 1019.47 1019.49 1019.74 1020.17 1020.31 1020.46 1020.98 1021.12 1021.04 1020.96 1021.42 1022.10 1022.67 1023.32 1023.32 1023.46 1023.57 1023.43 1023.14 1022.69 1021.79 1022.02 1022.01 1022.44
1014.42 1014.52 1014.79 1014.88 1014.99 1015.34 1015.93 1016.46 1016.77 1017.84 1018.51 1018.84 1019.00 1019.49 1019.56 1019.33 1019.42 1019.28 1019.65 1019.56 1019.76 1020.02 1020.80 1021.18 1020.93 1021.12 1021.11 1021.29 1021.50 1021.73 1022.12 1022.54 1022.62 1022.99 1022.86 1023.19 1023.46 1023.66 1023.83 1023.48 1022.91 1022.61 1022.77
1014.86 1014.92 1014.71 1014.98 1015.04 1015.51 1016.17 1017.11 1017.76 1017.77 1018.66 1019.06 1019.43 1019.42 1019.48 1019.56 1019.46 1019.55 1019.88 1019.79 1019.98 1020.54 1021.23 1021.45 1021.61 1021.61 1021.76 1021.54 1021.41 1022.18 1022.68 1022.90 1023.59 1023.40 1023.55 1023.75 1023.76 1023.99 1024.29 1024.76 1024.62 1023.99 1024.19
1014.49 1014.09 1014.53 1015.38 1015.89 1016.15 1016.21 1017.15 1016.92 1018.27 1018.60 1019.00 1019.21 1019.62 1019.69 1019.73 1019.78 1019.89 1020.04 1020.27 1020.44 1021.07 1021.45 1022.00 1022.30 1022.31 1022.42 1022.40 1022.51 1022.88 1023.53 1023.76 1023.97 1024.06 1024.24 1024.64 1024.95 1025.05 1025.11 1025.69 1025.96 1026.10 1025.99
1015.33 1015.37 1015.65 1016.13 1016.31 1016.90 1017.11 1017.68 1018.20 1018.17 1018.64 1019.14 1019.32 1019.75 1020.00 1020.13 1020.40 1020.46 1020.73 1021.19 1021.13 1021.57 1022.09 1022.62 1023.19 1023.04 1022.98 1023.24 1023.78 1023.64 1023.76 1023.90 1023.86 1024.01 1024.65 1025.35 1025.94 1026.24 1026.13 1026.19 1026.19 1026.39 1026.62
1016.58 1016.68 1017.17 1017.21 1017.62 1017.98 1018.22 1018.13 1018.49 1019.15 1019.78 1019.60 1019.84 1019.87 1020.20 1020.38 1020.71 1020.92 1021.30 1021.84 1021.99 1022.44 1022.88 1022.53 1023.02 1023.48 1023.61 1023.78 1023.89 1024.18 1024.32 1024.32 1024.39 1024.71 1025.31 1025.71 1025.72 1025.77 1026.05 1026.02 1025.86 1025.74 1025.66
1017.31 1017.71 1018.07 1018.31 1018.55 1019.15 1019.63 1019.64 1019.87 1020.40 1020.18 1020.09 1020.49 1020.80 1020.91 1020.86 1021.36 1021.85 1021.90 1021.93 1022.36 1022.67 1022.85 1023.22 1023.43 1023.61 1024.33 1024.48 1024.35 1024.51 1024.58 1024.49 1024.79 1025.03 1025.42 1025.66 1025.81 1025.94 1026.45 1026.70 1026.60 1026.21 1026.13
1017.81 1018.26 1018.58 1018.83 1019.07 1019.64 1019.98 1020.41 1020.56 1020.86 1020.96 1020.70 1021.04 1021.35 1021.88 1022.09 1022.35 1022.33 1022.27 1022.51 1022.84 1022.95 1022.83 1023.08 1023.53 1023.94 1024.41 1024.75 1024.96 1024.47 1024.84 1025.07 1025.29 1025.66 1025.72 1025.61 1025.70 1025.98 1026.32 1026.95 1027.08 1027.12 1026.94
1018.25 1018.76 1018.87 1019.04 1019.54 1020.02 1020.35 1020.55 1021.21 1022.06 1022.07 1022.19 1022.32 1022.19 1022.10 1022.56 1022.82 1023.04 1022.67 1022.86 1022.88 1022.68 1022.67 1023.38 1024.11 1024.54 1024.81 1024.80 1024.64 1024.77 1025.42 1025.60 1025.75 1025.71 1025.88 1025.99 1026.32 1026.65 1026.44 1026.92 1026.97 1026.80 1027.03
1018.28 1018.84 1018.90 1019.25 1019.57 1019.73 1020.13 1020.58 1020.90 1021.44 1021.76 1022.32 1022.67 1022.67 1022.63 1022.85 1023.11 1023.27 1023.33 1023.19 1023.23 1023.09 1023.08 1023.35 1023.87 1024.43 1024.62 1024.86 1025.27 1025.44 1025.34 1025.61 1026.07 1026.10 1026.25 1026.33 1026.77 1026.81 1026.83 1027.04 1027.30 1027.34 1027.50
1018.14 1018.52 1018.69 1019.01 1019.32 1019.70 1020.01 1020.31 1020.80 1020.95 1021.50 1021.85 1022.42 1022.80 1023.01 1023.08 1023.05 1023.37 1022.64 1022.67 1022.73 1022.86 1023.09 1023.20 1023.80 1024.42 1025.21 1025.59 1025.76 1025.98 1026.19 1026.12 1026.06 1026.31 1026.73 1026.78 1026.94 1027.29 1027.16 1027.09 1027.83 1028.10 1028.06
1018.49 1018.86 1018.85 1019.01 1019.35 1019.55 1019.79 1020.00 1020.49 1020.76 1020.92 1021.31 1021.70 1022.07 1022.49 1022.78 1022.94 1022.83 1022.68 1022.51 1022.39 1022.74 1022.89 1023.30 1023.81 1024.19 1024.77 1025.35 1025.71 1026.21 1026.43 1026.46 1026.48 1026.74 1027.01 1027.55 1027.72 1028.00 1027.89 1027.70 1027.62 1027.90 1028.05
1018.32 1018.62 1018.90 1018.76 1019.02 1019.43 1019.55 1019.82 1020.16 1020.37 1020.54 1020.75 1021.06 1021.56 1021.98 1021.97 1021.95 1022.13 1022.20 1022.15 1022.30 1022.47 1022.75 1023.14 1023.87 1024.33 1024.68 1024.93 1025.52 1025.97 1026.28 1026.50 1026.67 1026.91 1027.25 1027.71 1027.91 1027.98 1028.02 1028.24 1027.94 1028.21 1028.45
1018.53 1018.69 1018.85 1018.85 1019.16 1019.49 1019.69 1019.72 1019.84 1020.08 1020.22 1020.45 1020.68 1021.27 1021.89 1021.80 1021.43 1021.68 1021.90 1022.01 1022.17 1022.55 1022.77 1023.23 1023.59 1023.94 1024.46 1024.93 1025.20 1025.51 1026.04 1026.17 1026.66 1027.00 1027.14 1027.69 1028.01 1027.70 1027.61 1027.91 1028.16 1028.05 1028.10
1018.49 1018.55 1018.72 1018.86 1019.05 1019.57 1019.77 1019.68 1019.88 1020.15 1020.26 1020.32 1020.48 1020.77 1021.27 1021.10 1021.09 1021.31 1021.68 1021.89 1022.03 1022.37 1022.93 1023.19 1023.40 1023.80 1024.24 1024.56 1024.94 1025.19 1025.63 1026.06 1026.26 1026.54 1026.82 1027.15 1027.31 1027.24 1027.41 1027.51 1027.65 1027.77 1027.76
1018.34 1018.39 1018.50 1018.72 1019.05 1019.15 1019.24 1019.36 1019.54 1019.82 1019.80 1019.74 1020.02 1020.26 1020.52 1020.77 1020.95 1021.16 1021.32 1021.43 1021.65 1022.02 1022.36 1022.65 1023.01 1023.43 1023.93 1024.22 1024.56 1024.84 1025.13 1025.56 1025.97 1026.35 1026.40 1026.38 1026.64 1027.35 1027.26 1027.40 1027.64 1027.55 1027.56
1017.90 1018.08 1018.28 1018.46 1018.65 1018.82 1018.92 1018.95 1018.99 1019.07 1019.16 1019.32 1019.51 1019.69 1019.80 1020.10 1020.29 1020.50 1020.63 1020.96 1021.24 1021.57 1021.89 1022.14 1022.54 1022.80 1023.21 1023.74 1024.01 1024.36 1024.73 1025.37 1025.41 1025.88 1026.43 1026.41 1026.54 1026.84 1026.95 1027.04 1026.97 1027.10 1027.35
1017.35 1017.65 1017.85 1018.05 1018.25 1018.40 1018.45 1018.53 1018.68 1018.77 1018.86 1018.94 1019.11 1019.25 1019.43 1019.60 1019.72 1019.91 1020.21 1020.47 1020.73 1020.91 1021.22 1021.65 1022.01 1022.41 1022.74 1023.18 1023.55 1023.89 1024.71 1025.16 1025.56 1025.91 1025.81 1025.99 1026.03 1026.24 1026.59 1026.87 1026.97 1026.98 1026.92
Wind_Speed
14 13 11 10 10 9 8 8 7 6 6 7 7 8 9 10 9 9 8 7 7 6 6 6 5 4 4 4 4 4 4 4 5 1 2 2 1 5 6 4 6 9 12
13 13 13 11 10 10 9 8 7 8 7 7 6 7 9 10 9 9 9 8 9 8 8 7 8 6 7 6 6 6 5 4 5 5 2 1 1 4 4 5 4 7 10
13 13 13 13 12 11 11 9 8 7 7 8 7 7 7 8 9 9 9 10 10 10 9 8 9 8 8 7 6 5 5 4 4 2 4 1 1 3 3 4 6 5 9
13 14 14 14 14 13 11 9 9 8 8 8 8 8 8 8 9 9 10 10 10 9 9 8 8 8 8 8 7 7 6 5 4 3 3 2 1 2 1 1 5 6 5
14 14 15 14 13 12 11 10 9 8 8 8 8 8 7 8 8 10 10 10 9 9 8 6 5 3 4 5 4 6 6 5 4 3 2 1 0 0 1 1 2 5 7
13 15 14 13 13 13 12 11 10 9 9 8 9 9 8 6 4 3 5 6 7 7 7 6 5 4 4 7 8 10 6 4 5 3 3 2 3 1 1 1 0 2 3
9 13 12 12 10 13 12 10 10 10 8 8 8 8 8 7 6 7 7 6 6 6 6 5 4 3 5 6 9 9 11 10 7 2 3 1 2 1 2 3 3 4 4
10 10 10 11 9 10 11 11 10 8 6 5 5 6 7 6 6 7 7 5 5 5 7 6 4 3 3 5 6 7 9 9 7 6 8 6 5 3 3 3 5 7 5
9 9 10 10 8 6 5 6 4 3 3 3 1 4 5 5 6 8 7 6 6 7 4 4 6 6 3 6 7 10 11 12 14 18 15 13 17 17 12 1 2 4 2
6 6 6 8 8 11 8 7 3 3 3 2 3 2 2 4 3 7 10 6 8 6 5 4 8 5 6 7 7 9 10 10 9 8 8 11 12 13 17 10 5 3 2
6 7 10 8 11 10 8 4 6 6 6 5 4 3 3 4 3 7 3 5 6 6 4 3 4 8 6 7 5 5 7 9 8 7 7 6 7 8 8 9 10 6 4
3 2 1 5 6 5 9 7 9 6 6 5 5 4 3 4 6 7 7 7 9 4 5 4 5 12 12 12 10 14 12 6 5 5 5 6 5 6 8 9 10 10 9
9 8 8 6 7 8 8 6 7 5 5 4 5 4 4 4 5 10 11 7 8 8 7 11 13 14 15 14 14 10 6 4 5 5 5 6 6 5 5 6 8 9 9
8 9 8 8 8 9 6 5 6 5 3 4 4 4 5 4 5 6 7 7 12 11 12 7 11 13 12 9 7 7 5 4 5 6 6 5 5 4 5 3 2 2 4
8 8 7 5 7 8 8 6 6 5 2 4 3 1 3 4 4 2 2 5 6 8 9 5 4 5 5 5 6 6 5 6 6 6 6 5 5 5 5 4 4 4 4
8 6 5 4 6 5 4 5 18 11 9 13 11 4 4 9 5 5 10 11 12 11 4 5 6 5 6 5 4 6 6 7 6 6 5 5 6 5 5 4 4 4 4
8 7 5 5 6 5 4 4 7 5 11 11 9 9 9 7 5 4 5 12 10 8 7 6 6 5 5 3 7 5 6 5 5 5 5 5 5 5 4 4 4 3 4
8 7 5 4 4 4 5 4 5 6 6 3 7 5 7 6 8 8 7 8 4 4 5 5 5 5 5 5 5 5 7 6 5 5 5 5 4 4 4 4 4 4 3
5 5 5 5 4 5 4 4 4 5 3 3 2 1 3 6 8 6 1 4 5 5 4 5 6 6 4 4 4 5 4 5 5 5 4 4 4 4 4 5 6 5 4
4 4 3 4 4 4 4 4 5 5 5 4 4 4 4 3 5 6 3 5 5 6 5 6 6 6 6 6 6 5 4 5 5 4 4 3 4 2 4 4 4 3 3
3 3 1 3 4 4 4 4 4 4 4 4 4 4 2 4 4 5 5 5 5 6 6 6 6 6 6 6 6 6 6 6 6 5 5 4 3 4 4 3 4 3 1
2 1 1 2 4 4 3 3 3 3 3 4 4 4 4 4 3 4 4 4 4 4 4 5 6 6 7 7 7 7 6 7 6 6 5 5 5 4 4 3 2 2 1
4 5 4 4 4 4 5 5 4 4 4 4 4 5 6 5 4 4 5 5 6 6 5 6 6 6 6 7 7 7 7 7 7 7 6 6 5 4 3 3 2 2 2
5 6 5 5 5 5 5 5 5 4 5 7 7 6 6 6 6 6 5 6 6 7 7 7 6 8 8 8 7 8 8 7 7 8 8 6 5 5 4 3 3 2 3
6 6 6 6 6 6 5 5 5 5 5 5 5 6 6 7 7 6 6 6 7 7 8 8 7 9 12 13 11 12 9 11 10 8 8 8 7 7 5 4 4 3 4
8 7 6 6 5 5 5 4 4 4 4 5 5 4 4 5 6 7 7 8 7 9 10 9 10 13 14 13 15 14 9 13 13 10 9 8 8 7 6 6 5 4 4
Wind_Direction
204 206 214 215 211 212 221 232 235 226 221 226 217 212 220 218 210 208 220 231 231 232 235 231 239 223 237 222 218 228 240 240 271 259 268 84 336 13 29 57 83 84 69
208 208 209 214 216 214 218 222 226 238 238 236 234 230 229 230 217 220 222 219 220 229 235 235 244 238 233 235 235 236 247 234 273 278 343 218 298 36 71 89 75 85 97
205 211 216 215 214 217 221 219 217 215 226 237 235 227 219 215 221 229 227 232 232 230 234 231 234 226 232 243 232 239 236 234 229 274 284 276 309 20 116 90 73 85 104
212 211 213 215 218 221 221 219 216 209 226 222 221 229 230 226 222 232 234 236 228 232 232 233 235 234 236 235 232 229 229 225 234 242 269 257 264 86 330 150 115 63 57
215 216 217 214 213 215 219 215 214 217 222 235 229 230 229 227 226 225 230 228 234 234 224 230 238 288 358 308 268 225 220 218 232 249 247 230 11 357 13 9 142 138 80
221 227 221 211 207 209 214 215 214 215 217 218 229 232 233 230 150 174 243 249 254 233 205 201 173 173 82 62 77 61 24 246 207 200 214 211 179 187 113 10 307 209 152
218 233 228 214 203 209 207 205 212 217 217 222 233 241 241 234 197 187 194 231 234 239 208 176 168 144 143 115 98 93 65 44 26 88 145 48 128 87 154 168 99 90 64
213 224 217 215 213 201 192 196 198 204 210 215 228 229 226 220 227 255 235 205 194 181 172 167 178 166 137 155 133 93 71 54 45 81 90 85 51 8 33 67 103 116 137
198 204 204 179 166 148 163 156 125 159 166 177 230 244 236 218 211 252 229 182 145 131 121 150 158 153 165 173 137 123 105 94 77 79 84 81 62 43 22 223 143 234 149
182 173 178 176 146 160 163 154 120 112 115 134 114 59 343 268 337 222 221 178 145 109 107 93 56 110 133 165 142 142 133 137 127 109 84 68 56 58 40 36 13 30 96
210 188 189 187 171 155 132 127 132 134 135 129 124 95 26 336 36 65 40 131 125 118 95 77 52 58 80 108 116 128 126 126 110 106 90 81 73 64 59 47 39 28 61
280 350 223 86 59 50 127 138 120 142 129 121 98 77 51 33 37 83 88 100 119 119 122 93 77 74 74 79 89 107 97 91 104 93 101 90 83 79 70 64 59 57 61
64 59 76 106 116 144 137 133 135 106 104 115 115 121 117 93 77 86 91 99 118 123 124 111 101 83 77 64 70 74 109 142 121 96 86 73 62 64 97 103 96 104 84
74 68 59 53 60 47 48 81 76 92 107 93 81 105 103 112 108 109 116 106 96 100 105 91 93 89 84 95 81 71 71 63 98 105 106 109 112 94 80 69 82 115 81
71 66 57 61 74 76 58 41 73 42 36 112 128 121 127 123 101 26 128 129 133 132 125 118 98 93 84 90 93 110 116 113 105 116 123 117 98 92 72 49 42 62 67
87 81 78 76 74 77 87 74 47 52 62 61 50 78 55 54 117 143 117 118 135 155 123 124 114 115 118 123 116 104 104 111 112 118 116 107 104 100 89 71 55 43 46
98 109 114 105 114 119 111 102 108 62 68 57 56 61 71 118 89 67 121 141 143 131 131 130 126 132 132 129 120 131 121 106 116 112 114 108 109 111 130 106 84 73 71
101 97 100 93 95 108 115 116 131 142 134 99 44 66 76 86 122 117 106 134 132 97 138 142 136 143 141 137 138 135 140 139 127 122 121 115 113 115 122 98 79 67 59
114 114 111 112 107 108 112 120 125 118 115 123 119 108 90 70 122 153 78 170 166 151 154 143 143 142 140 138 135 124 143 139 131 134 130 127 131 149 122 106 98 52 346
123 125 131 135 131 121 132 139 142 146 148 154 164 156 148 148 163 183 199 174 175 164 163 156 161 158 154 153 145 149 141 141 134 127 119 116 100 105 105 118 110 87 54
103 124 115 172 167 154 144 144 143 149 151 165 179 176 162 215 201 201 198 188 184 172 169 165 163 163 161 155 157 164 163 159 158 145 146 141 150 154 146 119 111 98 66
159 144 171 185 171 183 177 171 168 168 167 174 166 156 166 224 206 195 198 191 177 180 173 169 173 175 174 176 172 171 173 168 166 166 161 172 180 154 144 151 161 186 263
189 184 168 166 171 166 188 198 196 206 202 195 185 175 188 208 201 193 191 188 178 176 177 186 175 177 176 182 185 179 183 188 181 174 171 174 171 162 169 172 198 232 275
202 204 199 189 186 194 188 190 196 202 199 193 191 193 196 205 209 200 199 194 193 190 186 188 190 190 183 190 187 194 197 188 181 183 180 170 161 168 178 191 218 255 277
208 206 209 206 203 205 197 219 212 210 198 196 201 209 207 210 219 217 210 208 207 206 200 199 200 199 198 199 202 202 178 162 194 175 187 186 187 184 200 209 208 228 260
211 209 212 210 214 216 217 216 224 228 231 223 219 219 221 221 224 223 218 216 217 213 210 203 204 206 202 207 211 205 165 179 196 196 199 200 204 208 212 227 224 248 256